Data supplied by UK-AIR on 18/5/2021
All Data GMT hour ending 
Status: R =Ratified P=Provisional,P*=As supplied
,,Hartlepool St Abbs Walk,,,,,,,,,,,,,,,,,,,,,,,
Date,time,"Nitric oxide",status,unit,"Nitrogen dioxide",status,unit,"Nitrogen oxides as nitrogen dioxide",status,unit
 
01-01-2020,01:00,0.25956,R,ugm-3,12.69529,R,ugm-3,13.09328,R,ugm-3
01-01-2020,02:00,0.25956,R,ugm-3,7.58891,R,ugm-3,7.98690,R,ugm-3
01-01-2020,03:00,0.32445,R,ugm-3,6.32738,R,ugm-3,6.82487,R,ugm-3
01-01-2020,04:00,0.29201,R,ugm-3,6.91723,R,ugm-3,7.36497,R,ugm-3
01-01-2020,05:00,0.19467,R,ugm-3,9.42327,R,ugm-3,9.72176,R,ugm-3
01-01-2020,06:00,0.12978,R,ugm-3,9.22817,R,ugm-3,9.42716,R,ugm-3
01-01-2020,07:00,0.32445,R,ugm-3,9.81347,R,ugm-3,10.31096,R,ugm-3
01-01-2020,08:00,0.55157,R,ugm-3,10.25082,R,ugm-3,11.09656,R,ugm-3
01-01-2020,09:00,0.61646,R,ugm-3,13.44101,R,ugm-3,14.38624,R,ugm-3
01-01-2020,10:00,0.97336,R,ugm-3,8.76939,R,ugm-3,10.26186,R,ugm-3
01-01-2020,11:00,1.23293,R,ugm-3,7.97860,R,ugm-3,9.86906,R,ugm-3
01-01-2020,12:00,1.91428,R,ugm-3,9.14336,R,ugm-3,12.07855,R,ugm-3
01-01-2020,13:00,1.84939,R,ugm-3,8.85006,R,ugm-3,11.68575,R,ugm-3
01-01-2020,14:00,2.20629,R,ugm-3,11.98531,R,ugm-3,15.36824,R,ugm-3
01-01-2020,15:00,2.10895,R,ugm-3,15.62064,R,ugm-3,18.85432,R,ugm-3
01-01-2020,16:00,1.97917,R,ugm-3,22.89001,R,ugm-3,25.92470,R,ugm-3
01-01-2020,17:00,0.97336,R,ugm-3,18.98215,R,ugm-3,20.47462,R,ugm-3
01-01-2020,18:00,1.10315,R,ugm-3,19.42145,R,ugm-3,21.11292,R,ugm-3
01-01-2020,19:00,1.26537,R,ugm-3,23.98449,R,ugm-3,25.92470,R,ugm-3
01-01-2020,20:00,1.71961,R,ugm-3,28.05068,R,ugm-3,30.68738,R,ugm-3
01-01-2020,21:00,0.87603,R,ugm-3,21.83189,R,ugm-3,23.17511,R,ugm-3
01-01-2020,22:00,1.10315,R,ugm-3,23.05484,R,ugm-3,24.74630,R,ugm-3
01-01-2020,23:00,0.61646,R,ugm-3,18.35099,R,ugm-3,19.29622,R,ugm-3
01-01-2020,24:00,0.64891,R,ugm-3,23.35852,R,ugm-3,24.35350,R,ugm-3
02-01-2020,01:00,0.43159,R,ugm-3,17.61682,R,ugm-3,18.27859,R,ugm-3
02-01-2020,02:00,0.17264,R,ugm-3,10.44132,R,ugm-3,10.70603,R,ugm-3
02-01-2020,03:00,0.25896,R,ugm-3,9.63984,R,ugm-3,10.03690,R,ugm-3
02-01-2020,04:00,0.22659,R,ugm-3,7.04561,R,ugm-3,7.39304,R,ugm-3
02-01-2020,05:00,0.42080,R,ugm-3,12.13347,R,ugm-3,12.77869,R,ugm-3
02-01-2020,06:00,0.32369,R,ugm-3,6.40711,R,ugm-3,6.90343,R,ugm-3
02-01-2020,07:00,0.74450,R,ugm-3,14.67270,R,ugm-3,15.81424,R,ugm-3
02-01-2020,08:00,1.00345,R,ugm-3,14.22668,R,ugm-3,15.76528,R,ugm-3
02-01-2020,09:00,1.35952,R,ugm-3,18.77261,R,ugm-3,20.85717,R,ugm-3
02-01-2020,10:00,2.33060,R,ugm-3,19.09518,R,ugm-3,22.66871,R,ugm-3
02-01-2020,11:00,2.71903,R,ugm-3,18.59751,R,ugm-3,22.76663,R,ugm-3
02-01-2020,12:00,2.42771,R,ugm-3,17.42851,R,ugm-3,21.15093,R,ugm-3
02-01-2020,13:00,2.13638,R,ugm-3,13.12603,R,ugm-3,16.40177,R,ugm-3
02-01-2020,14:00,1.48899,R,ugm-3,13.28635,R,ugm-3,15.56944,R,ugm-3
02-01-2020,15:00,1.61847,R,ugm-3,12.05965,R,ugm-3,14.54127,R,ugm-3
02-01-2020,16:00,1.10056,R,ugm-3,14.17570,R,ugm-3,15.86320,R,ugm-3
02-01-2020,17:00,0.93871,R,ugm-3,19.36887,R,ugm-3,20.80821,R,ugm-3
02-01-2020,18:00,0.51791,R,ugm-3,11.83769,R,ugm-3,12.63181,R,ugm-3
02-01-2020,19:00,0.48554,R,ugm-3,9.97786,R,ugm-3,10.72235,R,ugm-3
02-01-2020,20:00,0.35606,R,ugm-3,8.56070,R,ugm-3,9.10665,R,ugm-3
02-01-2020,21:00,0.35606,R,ugm-3,7.14084,R,ugm-3,7.68680,R,ugm-3
02-01-2020,22:00,0.35606,R,ugm-3,8.56070,R,ugm-3,9.10665,R,ugm-3
02-01-2020,23:00,0.29132,R,ugm-3,6.75050,R,ugm-3,7.19719,R,ugm-3
02-01-2020,24:00,0.19422,R,ugm-3,4.15761,R,ugm-3,4.45541,R,ugm-3
03-01-2020,01:00,0.21529,R,ugm-3,2.59917,R,ugm-3,2.92927,R,ugm-3
03-01-2020,02:00,0.25835,R,ugm-3,3.16782,R,ugm-3,3.56395,R,ugm-3
03-01-2020,03:00,0.12917,R,ugm-3,3.70763,R,ugm-3,3.90570,R,ugm-3
03-01-2020,04:00,0.29064,R,ugm-3,2.97184,R,ugm-3,3.41748,R,ugm-3
03-01-2020,05:00,0.25835,R,ugm-3,1.55672,R,ugm-3,1.95285,R,ugm-3
03-01-2020,06:00,0.09688,R,ugm-3,2.24369,R,ugm-3,2.39224,R,ugm-3
03-01-2020,07:00,0.25835,R,ugm-3,6.29238,R,ugm-3,6.68850,R,ugm-3
03-01-2020,08:00,0.45211,R,ugm-3,10.29155,R,ugm-3,10.98477,R,ugm-3
03-01-2020,09:00,0.71046,R,ugm-3,10.13953,R,ugm-3,11.22888,R,ugm-3
03-01-2020,10:00,1.00109,R,ugm-3,12.91608,R,ugm-3,14.45107,R,ugm-3
03-01-2020,11:00,1.29174,R,ugm-3,12.66572,R,ugm-3,14.64636,R,ugm-3
03-01-2020,12:00,1.74384,R,ugm-3,10.21494,R,ugm-3,12.88880,R,ugm-3
03-01-2020,13:00,1.55008,R,ugm-3,9.82854,R,ugm-3,12.20530,R,ugm-3
03-01-2020,14:00,1.32403,R,ugm-3,9.39401,R,ugm-3,11.42416,R,ugm-3
03-01-2020,15:00,1.25944,R,ugm-3,11.25060,R,ugm-3,13.18172,R,ugm-3
03-01-2020,16:00,1.22715,R,ugm-3,15.54756,R,ugm-3,17.42917,R,ugm-3
03-01-2020,17:00,0.96880,R,ugm-3,15.16255,R,ugm-3,16.64803,R,ugm-3
03-01-2020,18:00,0.58128,R,ugm-3,8.23828,R,ugm-3,9.12956,R,ugm-3
03-01-2020,19:00,0.48440,R,ugm-3,7.01983,R,ugm-3,7.76257,R,ugm-3
03-01-2020,20:00,0.48440,R,ugm-3,8.38683,R,ugm-3,9.12956,R,ugm-3
03-01-2020,21:00,0.38752,R,ugm-3,8.38891,R,ugm-3,8.98310,R,ugm-3
03-01-2020,22:00,0.41981,R,ugm-3,5.84951,R,ugm-3,6.49322,R,ugm-3
03-01-2020,23:00,0.32293,R,ugm-3,7.07213,R,ugm-3,7.56728,R,ugm-3
03-01-2020,24:00,0.29064,R,ugm-3,4.92469,R,ugm-3,5.37033,R,ugm-3
04-01-2020,01:00,0.21478,R,ugm-3,2.78631,R,ugm-3,3.11564,R,ugm-3
04-01-2020,02:00,0.28996,R,ugm-3,2.03818,R,ugm-3,2.48278,R,ugm-3
04-01-2020,03:00,0.19330,R,ugm-3,1.89429,R,ugm-3,2.19069,R,ugm-3
04-01-2020,04:00,0.12887,R,ugm-3,2.04177,R,ugm-3,2.23937,R,ugm-3
04-01-2020,05:00,0.28996,R,ugm-3,1.89214,R,ugm-3,2.33673,R,ugm-3
04-01-2020,06:00,0.32217,R,ugm-3,2.37824,R,ugm-3,2.87223,R,ugm-3
04-01-2020,07:00,0.35439,R,ugm-3,2.37752,R,ugm-3,2.92091,R,ugm-3
04-01-2020,08:00,0.38661,R,ugm-3,2.91231,R,ugm-3,3.50510,R,ugm-3
04-01-2020,09:00,0.38661,R,ugm-3,3.98331,R,ugm-3,4.57610,R,ugm-3
04-01-2020,10:00,0.67656,R,ugm-3,5.24258,R,ugm-3,6.27996,R,ugm-3
04-01-2020,11:00,0.77322,R,ugm-3,5.48384,R,ugm-3,6.66942,R,ugm-3
04-01-2020,12:00,0.99874,R,ugm-3,6.54982,R,ugm-3,8.08119,R,ugm-3
04-01-2020,13:00,1.06317,R,ugm-3,6.49970,R,ugm-3,8.12988,R,ugm-3
04-01-2020,14:00,0.83765,R,ugm-3,6.01790,R,ugm-3,7.30228,R,ugm-3
04-01-2020,15:00,0.70878,R,ugm-3,7.82200,R,ugm-3,8.90879,R,ugm-3
04-01-2020,16:00,0.86987,R,ugm-3,11.61560,R,ugm-3,12.94938,R,ugm-3
04-01-2020,17:00,3.70500,R,ugm-3,26.01100,R,ugm-3,31.69191,R,ugm-3
04-01-2020,18:00,0.64435,R,ugm-3,16.09936,R,ugm-3,17.08734,R,ugm-3
04-01-2020,19:00,0.38661,R,ugm-3,14.40123,R,ugm-3,14.99402,R,ugm-3
04-01-2020,20:00,0.38661,R,ugm-3,20.82724,R,ugm-3,21.42003,R,ugm-3
04-01-2020,21:00,0.54770,R,ugm-3,20.19079,R,ugm-3,21.03058,R,ugm-3
04-01-2020,22:00,0.41883,R,ugm-3,15.42283,R,ugm-3,16.06502,R,ugm-3
04-01-2020,23:00,0.32217,R,ugm-3,10.70284,R,ugm-3,11.19684,R,ugm-3
04-01-2020,24:00,0.19330,R,ugm-3,12.50694,R,ugm-3,12.80334,R,ugm-3
05-01-2020,01:00,0.17142,R,ugm-3,9.70457,R,ugm-3,9.96741,R,ugm-3
05-01-2020,02:00,0.25713,R,ugm-3,3.16553,R,ugm-3,3.55979,R,ugm-3
05-01-2020,03:00,0.19285,R,ugm-3,2.56832,R,ugm-3,2.86401,R,ugm-3
05-01-2020,04:00,0.22499,R,ugm-3,2.71320,R,ugm-3,3.05818,R,ugm-3
05-01-2020,05:00,0.25713,R,ugm-3,2.61538,R,ugm-3,3.00964,R,ugm-3
05-01-2020,06:00,0.25713,R,ugm-3,2.08141,R,ugm-3,2.47567,R,ugm-3
05-01-2020,07:00,0.12857,R,ugm-3,2.66688,R,ugm-3,2.86401,R,ugm-3
05-01-2020,08:00,0.25713,R,ugm-3,3.05226,R,ugm-3,3.44652,R,ugm-3
05-01-2020,09:00,0.35356,R,ugm-3,3.77818,R,ugm-3,4.32029,R,ugm-3
05-01-2020,10:00,0.38570,R,ugm-3,5.08809,R,ugm-3,5.67948,R,ugm-3
05-01-2020,11:00,0.61069,R,ugm-3,6.44210,R,ugm-3,7.37847,R,ugm-3
05-01-2020,12:00,0.64283,R,ugm-3,7.36367,R,ugm-3,8.34933,R,ugm-3
05-01-2020,13:00,0.70711,R,ugm-3,7.65344,R,ugm-3,8.73766,R,ugm-3
05-01-2020,14:00,0.70711,R,ugm-3,7.70199,R,ugm-3,8.78621,R,ugm-3
05-01-2020,15:00,0.64283,R,ugm-3,8.57724,R,ugm-3,9.56289,R,ugm-3
05-01-2020,16:00,0.64283,R,ugm-3,8.67432,R,ugm-3,9.65997,R,ugm-3
05-01-2020,17:00,0.41784,R,ugm-3,8.29116,R,ugm-3,8.93183,R,ugm-3
05-01-2020,18:00,0.28927,R,ugm-3,6.78930,R,ugm-3,7.23284,R,ugm-3
05-01-2020,19:00,0.28927,R,ugm-3,6.30388,R,ugm-3,6.74742,R,ugm-3
05-01-2020,20:00,0.44998,R,ugm-3,7.56228,R,ugm-3,8.25224,R,ugm-3
05-01-2020,21:00,0.28927,R,ugm-3,4.21654,R,ugm-3,4.66009,R,ugm-3
05-01-2020,22:00,0.25713,R,ugm-3,3.14935,R,ugm-3,3.54361,R,ugm-3
05-01-2020,23:00,0.25713,R,ugm-3,2.80955,R,ugm-3,3.20381,R,ugm-3
05-01-2020,24:00,0.19285,R,ugm-3,2.32560,R,ugm-3,2.62130,R,ugm-3
06-01-2020,01:00,0.29928,R,ugm-3,1.79994,R,ugm-3,2.25882,R,ugm-3
06-01-2020,02:00,0.17102,R,ugm-3,3.15828,R,ugm-3,3.42050,R,ugm-3
06-01-2020,03:00,0.16033,R,ugm-3,3.57803,R,ugm-3,3.82386,R,ugm-3
06-01-2020,04:00,0.28859,R,ugm-3,2.89733,R,ugm-3,3.33983,R,ugm-3
06-01-2020,05:00,0.12826,R,ugm-3,2.51392,R,ugm-3,2.71058,R,ugm-3
06-01-2020,06:00,0.32065,R,ugm-3,3.47741,R,ugm-3,3.96907,R,ugm-3
06-01-2020,07:00,0.32065,R,ugm-3,5.12312,R,ugm-3,5.61478,R,ugm-3
06-01-2020,08:00,0.70544,R,ugm-3,17.02117,R,ugm-3,18.10282,R,ugm-3
06-01-2020,09:00,0.99403,R,ugm-3,17.30473,R,ugm-3,18.82887,R,ugm-3
06-01-2020,10:00,1.89185,R,ugm-3,21.25243,R,ugm-3,24.15323,R,ugm-3
06-01-2020,11:00,1.76359,R,ugm-3,21.20708,R,ugm-3,23.91122,R,ugm-3
06-01-2020,12:00,0.92990,R,ugm-3,11.88508,R,ugm-3,13.31090,R,ugm-3
06-01-2020,13:00,1.63533,R,ugm-3,12.98158,R,ugm-3,15.48905,R,ugm-3
06-01-2020,14:00,1.79566,R,ugm-3,15.10751,R,ugm-3,17.86081,R,ugm-3
06-01-2020,15:00,2.05218,R,ugm-3,19.74812,R,ugm-3,22.89475,R,ugm-3
06-01-2020,16:00,1.44294,R,ugm-3,20.87589,R,ugm-3,23.08836,R,ugm-3
06-01-2020,17:00,0.76957,R,ugm-3,13.63142,R,ugm-3,14.81140,R,ugm-3
06-01-2020,18:00,0.99403,R,ugm-3,13.57767,R,ugm-3,15.10182,R,ugm-3
06-01-2020,19:00,0.67337,R,ugm-3,13.68211,R,ugm-3,14.71460,R,ugm-3
06-01-2020,20:00,0.38478,R,ugm-3,10.73637,R,ugm-3,11.32637,R,ugm-3
06-01-2020,21:00,0.41685,R,ugm-3,8.41225,R,ugm-3,9.05141,R,ugm-3
06-01-2020,22:00,0.25652,R,ugm-3,8.07725,R,ugm-3,8.47057,R,ugm-3
06-01-2020,23:00,0.38478,R,ugm-3,8.21940,R,ugm-3,8.80940,R,ugm-3
06-01-2020,24:00,0.19239,R,ugm-3,4.20651,R,ugm-3,4.50151,R,ugm-3
07-01-2020,01:00,0.25592,R,ugm-3,3.14696,R,ugm-3,3.53936,R,ugm-3
07-01-2020,02:00,0.25592,R,ugm-3,4.11224,R,ugm-3,4.50464,R,ugm-3
07-01-2020,03:00,0.35188,R,ugm-3,9.45110,R,ugm-3,9.99064,R,ugm-3
07-01-2020,04:00,0.25592,R,ugm-3,12.44582,R,ugm-3,12.83822,R,ugm-3
07-01-2020,05:00,0.19194,R,ugm-3,9.98593,R,ugm-3,10.28023,R,ugm-3
07-01-2020,06:00,0.25592,R,ugm-3,14.37638,R,ugm-3,14.76877,R,ugm-3
07-01-2020,07:00,0.38387,R,ugm-3,16.54511,R,ugm-3,17.13371,R,ugm-3
07-01-2020,08:00,0.92769,R,ugm-3,20.73072,R,ugm-3,22.15316,R,ugm-3
07-01-2020,09:00,1.75941,R,ugm-3,24.52315,R,ugm-3,27.22088,R,ugm-3
07-01-2020,10:00,1.15162,R,ugm-3,15.46445,R,ugm-3,17.23024,R,ugm-3
07-01-2020,11:00,1.11963,R,ugm-3,11.60412,R,ugm-3,13.32086,R,ugm-3
07-01-2020,12:00,1.56748,R,ugm-3,14.92334,R,ugm-3,17.32676,R,ugm-3
07-01-2020,13:00,1.98334,R,ugm-3,17.22979,R,ugm-3,20.27087,R,ugm-3
07-01-2020,14:00,1.79140,R,ugm-3,16.12444,R,ugm-3,18.87121,R,ugm-3
07-01-2020,15:00,1.85538,R,ugm-3,15.39891,R,ugm-3,18.24378,R,ugm-3
07-01-2020,16:00,1.21559,R,ugm-3,15.60767,R,ugm-3,17.47156,R,ugm-3
07-01-2020,17:00,0.86371,R,ugm-3,11.12777,R,ugm-3,12.45210,R,ugm-3
07-01-2020,18:00,0.51183,R,ugm-3,9.49543,R,ugm-3,10.28023,R,ugm-3
07-01-2020,19:00,0.35188,R,ugm-3,8.67887,R,ugm-3,9.21842,R,ugm-3
07-01-2020,20:00,0.31989,R,ugm-3,6.94216,R,ugm-3,7.43265,R,ugm-3
07-01-2020,21:00,0.25592,R,ugm-3,4.04789,R,ugm-3,4.44029,R,ugm-3
07-01-2020,22:00,0.35188,R,ugm-3,2.83893,R,ugm-3,3.37848,R,ugm-3
07-01-2020,23:00,0.25592,R,ugm-3,2.06907,R,ugm-3,2.46146,R,ugm-3
07-01-2020,24:00,0.12796,R,ugm-3,1.78262,R,ugm-3,1.97882,R,ugm-3
08-01-2020,01:00,0.12765,R,ugm-3,1.60092,R,ugm-3,1.79665,R,ugm-3
08-01-2020,02:00,0.12765,R,ugm-3,1.87363,R,ugm-3,2.06936,R,ugm-3
08-01-2020,03:00,0.22339,R,ugm-3,1.67871,R,ugm-3,2.02124,R,ugm-3
08-01-2020,04:00,0.31913,R,ugm-3,1.53191,R,ugm-3,2.02124,R,ugm-3
08-01-2020,05:00,0.25531,R,ugm-3,1.67790,R,ugm-3,2.06936,R,ugm-3
08-01-2020,06:00,0.19148,R,ugm-3,3.55638,R,ugm-3,3.84997,R,ugm-3
08-01-2020,07:00,0.22339,R,ugm-3,8.99365,R,ugm-3,9.33618,R,ugm-3
08-01-2020,08:00,0.82975,R,ugm-3,14.94575,R,ugm-3,16.21801,R,ugm-3
08-01-2020,09:00,3.19133,R,ugm-3,32.83644,R,ugm-3,37.72974,R,ugm-3
08-01-2020,10:00,1.40418,R,ugm-3,19.11805,R,ugm-3,21.27110,R,ugm-3
08-01-2020,11:00,1.78714,R,ugm-3,15.54712,R,ugm-3,18.28737,R,ugm-3
08-01-2020,12:00,1.62758,R,ugm-3,10.83495,R,ugm-3,13.33053,R,ugm-3
08-01-2020,13:00,1.56375,R,ugm-3,9.72970,R,ugm-3,12.12742,R,ugm-3
08-01-2020,14:00,1.24462,R,ugm-3,9.73778,R,ugm-3,11.64617,R,ugm-3
08-01-2020,15:00,0.86166,R,ugm-3,10.80622,R,ugm-3,12.12742,R,ugm-3
08-01-2020,16:00,1.11697,R,ugm-3,18.01846,R,ugm-3,19.73111,R,ugm-3
08-01-2020,17:00,3.35089,R,ugm-3,39.71422,R,ugm-3,44.85219,R,ugm-3
08-01-2020,18:00,1.62758,R,ugm-3,28.92982,R,ugm-3,31.42541,R,ugm-3
08-01-2020,19:00,1.49992,R,ugm-3,33.84177,R,ugm-3,36.14162,R,ugm-3
08-01-2020,20:00,1.27653,R,ugm-3,37.07178,R,ugm-3,39.02910,R,ugm-3
08-01-2020,21:00,0.89357,R,ugm-3,28.13030,R,ugm-3,29.50042,R,ugm-3
08-01-2020,22:00,0.57444,R,ugm-3,18.89844,R,ugm-3,19.77924,R,ugm-3
08-01-2020,23:00,0.57444,R,ugm-3,19.23532,R,ugm-3,20.11611,R,ugm-3
08-01-2020,24:00,2.55306,R,ugm-3,40.31193,R,ugm-3,44.22657,R,ugm-3
09-01-2020,01:00,0.97634,R,ugm-3,27.42214,R,ugm-3,28.91918,R,ugm-3
09-01-2020,02:00,0.08490,R,ugm-3,11.83417,R,ugm-3,11.96435,R,ugm-3
09-01-2020,03:00,0.15919,R,ugm-3,7.14566,R,ugm-3,7.38975,R,ugm-3
09-01-2020,04:00,0.06368,R,ugm-3,3.21336,R,ugm-3,3.31099,R,ugm-3
09-01-2020,05:00,0.15919,R,ugm-3,1.62735,R,ugm-3,1.87143,R,ugm-3
09-01-2020,06:00,0.19102,R,ugm-3,1.14666,R,ugm-3,1.43956,R,ugm-3
09-01-2020,07:00,0.28654,R,ugm-3,0.90424,R,ugm-3,1.34359,R,ugm-3
09-01-2020,08:00,0.60491,R,ugm-3,2.43146,R,ugm-3,3.35898,R,ugm-3
09-01-2020,09:00,0.85961,R,ugm-3,13.74936,R,ugm-3,15.06740,R,ugm-3
09-01-2020,10:00,5.63520,R,ugm-3,47.16646,R,ugm-3,55.80697,R,ugm-3
09-01-2020,11:00,2.48331,R,ugm-3,24.59965,R,ugm-3,28.40733,R,ugm-3
09-01-2020,12:00,1.52819,R,ugm-3,15.12348,R,ugm-3,17.46667,R,ugm-3
09-01-2020,13:00,2.16493,R,ugm-3,8.14898,R,ugm-3,11.46850,R,ugm-3
09-01-2020,14:00,1.46451,R,ugm-3,4.32844,R,ugm-3,6.57400,R,ugm-3
09-01-2020,15:00,1.68738,R,ugm-3,6.86584,R,ugm-3,9.45312,R,ugm-3
09-01-2020,16:00,1.94207,R,ugm-3,6.18740,R,ugm-3,9.16520,R,ugm-3
09-01-2020,17:00,1.27349,R,ugm-3,6.82866,R,ugm-3,8.78132,R,ugm-3
09-01-2020,18:00,1.36900,R,ugm-3,5.81848,R,ugm-3,7.91758,R,ugm-3
09-01-2020,19:00,1.01879,R,ugm-3,4.10015,R,ugm-3,5.66227,R,ugm-3
09-01-2020,20:00,0.85961,R,ugm-3,9.67060,R,ugm-3,10.98865,R,ugm-3
09-01-2020,21:00,0.73226,R,ugm-3,14.80836,R,ugm-3,15.93114,R,ugm-3
09-01-2020,22:00,0.54123,R,ugm-3,11.50236,R,ugm-3,12.33224,R,ugm-3
09-01-2020,23:00,0.41388,R,ugm-3,10.49799,R,ugm-3,11.13260,R,ugm-3
09-01-2020,24:00,0.25470,R,ugm-3,7.28713,R,ugm-3,7.67766,R,ugm-3
10-01-2020,01:00,0.29644,R,ugm-3,5.54217,R,ugm-3,5.99671,R,ugm-3
10-01-2020,02:00,0.28585,R,ugm-3,5.15969,R,ugm-3,5.59799,R,ugm-3
10-01-2020,03:00,0.22233,R,ugm-3,5.35278,R,ugm-3,5.69368,R,ugm-3
10-01-2020,04:00,0.28585,R,ugm-3,5.44677,R,ugm-3,5.88507,R,ugm-3
10-01-2020,05:00,0.28585,R,ugm-3,4.92046,R,ugm-3,5.35876,R,ugm-3
10-01-2020,06:00,0.88932,R,ugm-3,6.62669,R,ugm-3,7.99029,R,ugm-3
10-01-2020,07:00,0.38114,R,ugm-3,8.21928,R,ugm-3,8.80367,R,ugm-3
10-01-2020,08:00,3.55726,R,ugm-3,27.46370,R,ugm-3,32.91808,R,ugm-3
10-01-2020,09:00,9.90951,R,ugm-3,46.23997,R,ugm-3,61.43433,R,ugm-3
10-01-2020,10:00,15.46773,R,ugm-3,44.65516,R,ugm-3,68.37201,R,ugm-3
10-01-2020,11:00,15.02307,R,ugm-3,38.06436,R,ugm-3,61.09941,R,ugm-3
10-01-2020,12:00,6.03464,R,ugm-3,22.27757,R,ugm-3,31.53055,R,ugm-3
10-01-2020,13:00,4.31953,R,ugm-3,17.49123,R,ugm-3,24.11441,R,ugm-3
10-01-2020,14:00,3.74783,R,ugm-3,17.02814,R,ugm-3,22.77472,R,ugm-3
10-01-2020,15:00,2.95380,R,ugm-3,20.30301,R,ugm-3,24.83210,R,ugm-3
10-01-2020,16:00,2.63618,R,ugm-3,25.86169,R,ugm-3,29.90378,R,ugm-3
10-01-2020,17:00,2.50914,R,ugm-3,32.18079,R,ugm-3,36.02808,R,ugm-3
10-01-2020,18:00,0.98460,R,ugm-3,20.93010,R,ugm-3,22.43980,R,ugm-3
10-01-2020,19:00,0.69875,R,ugm-3,23.85640,R,ugm-3,24.92779,R,ugm-3
10-01-2020,20:00,0.76227,R,ugm-3,26.86899,R,ugm-3,28.03779,R,ugm-3
10-01-2020,21:00,0.50818,R,ugm-3,21.89983,R,ugm-3,22.67903,R,ugm-3
10-01-2020,22:00,0.41290,R,ugm-3,18.60102,R,ugm-3,19.23411,R,ugm-3
10-01-2020,23:00,0.28585,R,ugm-3,12.14521,R,ugm-3,12.58351,R,ugm-3
10-01-2020,24:00,0.28585,R,ugm-3,9.41799,R,ugm-3,9.85629,R,ugm-3
11-01-2020,01:00,0.33798,R,ugm-3,11.56749,R,ugm-3,12.08571,R,ugm-3
11-01-2020,02:00,0.28517,R,ugm-3,5.28756,R,ugm-3,5.72481,R,ugm-3
11-01-2020,03:00,0.28517,R,ugm-3,1.99580,R,ugm-3,2.43304,R,ugm-3
11-01-2020,04:00,0.25348,R,ugm-3,1.75814,R,ugm-3,2.14680,R,ugm-3
11-01-2020,05:00,0.12674,R,ugm-3,1.66623,R,ugm-3,1.86056,R,ugm-3
11-01-2020,06:00,0.22180,R,ugm-3,1.71131,R,ugm-3,2.05139,R,ugm-3
11-01-2020,07:00,0.31685,R,ugm-3,1.80409,R,ugm-3,2.28992,R,ugm-3
11-01-2020,08:00,0.22180,R,ugm-3,4.71683,R,ugm-3,5.05692,R,ugm-3
11-01-2020,09:00,0.41191,R,ugm-3,6.23819,R,ugm-3,6.86977,R,ugm-3
11-01-2020,10:00,1.04561,R,ugm-3,12.08859,R,ugm-3,13.69184,R,ugm-3
11-01-2020,11:00,1.10898,R,ugm-3,7.26845,R,ugm-3,8.96887,R,ugm-3
11-01-2020,12:00,0.98224,R,ugm-3,8.08297,R,ugm-3,9.58906,R,ugm-3
11-01-2020,13:00,0.91887,R,ugm-3,6.84435,R,ugm-3,8.25327,R,ugm-3
11-01-2020,14:00,1.04561,R,ugm-3,12.80419,R,ugm-3,14.40744,R,ugm-3
11-01-2020,15:00,0.57033,R,ugm-3,5.66133,R,ugm-3,6.53583,R,ugm-3
11-01-2020,16:00,0.47528,R,ugm-3,5.33001,R,ugm-3,6.05876,R,ugm-3
11-01-2020,17:00,0.41191,R,ugm-3,4.90240,R,ugm-3,5.53398,R,ugm-3
11-01-2020,18:00,0.25348,R,ugm-3,5.57468,R,ugm-3,5.96334,R,ugm-3
11-01-2020,19:00,0.19011,R,ugm-3,6.76910,R,ugm-3,7.06060,R,ugm-3
11-01-2020,20:00,0.22180,R,ugm-3,4.71683,R,ugm-3,5.05692,R,ugm-3
11-01-2020,21:00,0.34854,R,ugm-3,4.85645,R,ugm-3,5.39086,R,ugm-3
11-01-2020,22:00,0.22180,R,ugm-3,5.57555,R,ugm-3,5.91564,R,ugm-3
11-01-2020,23:00,0.19011,R,ugm-3,5.43331,R,ugm-3,5.72481,R,ugm-3
11-01-2020,24:00,0.19011,R,ugm-3,4.19293,R,ugm-3,4.48443,R,ugm-3
12-01-2020,01:00,0.21073,R,ugm-3,4.24336,R,ugm-3,4.56647,R,ugm-3
12-01-2020,02:00,0.25287,R,ugm-3,4.87640,R,ugm-3,5.26413,R,ugm-3
12-01-2020,03:00,0.25287,R,ugm-3,4.08361,R,ugm-3,4.47134,R,ugm-3
12-01-2020,04:00,0.25287,R,ugm-3,3.75063,R,ugm-3,4.13837,R,ugm-3
12-01-2020,05:00,0.25287,R,ugm-3,3.03712,R,ugm-3,3.42486,R,ugm-3
12-01-2020,06:00,0.09483,R,ugm-3,2.66108,R,ugm-3,2.80648,R,ugm-3
12-01-2020,07:00,0.31609,R,ugm-3,4.55748,R,ugm-3,5.04215,R,ugm-3
12-01-2020,08:00,0.37931,R,ugm-3,8.50378,R,ugm-3,9.08538,R,ugm-3
12-01-2020,09:00,0.60058,R,ugm-3,11.92234,R,ugm-3,12.84321,R,ugm-3
12-01-2020,10:00,0.53736,R,ugm-3,8.97496,R,ugm-3,9.79889,R,ugm-3
12-01-2020,11:00,1.13793,R,ugm-3,16.37839,R,ugm-3,18.12320,R,ugm-3
12-01-2020,12:00,2.27586,R,ugm-3,16.01304,R,ugm-3,19.50265,R,ugm-3
12-01-2020,13:00,1.54885,R,ugm-3,10.61104,R,ugm-3,12.98591,R,ugm-3
12-01-2020,14:00,1.07471,R,ugm-3,6.24833,R,ugm-3,7.89620,R,ugm-3
12-01-2020,15:00,0.85345,R,ugm-3,5.77895,R,ugm-3,7.08755,R,ugm-3
12-01-2020,16:00,0.53736,R,ugm-3,9.97388,R,ugm-3,10.79781,R,ugm-3
12-01-2020,17:00,0.47414,R,ugm-3,13.35296,R,ugm-3,14.07996,R,ugm-3
12-01-2020,18:00,0.47414,R,ugm-3,16.87295,R,ugm-3,17.59995,R,ugm-3
12-01-2020,19:00,0.47414,R,ugm-3,14.82755,R,ugm-3,15.55455,R,ugm-3
12-01-2020,20:00,0.47414,R,ugm-3,16.68268,R,ugm-3,17.40968,R,ugm-3
12-01-2020,21:00,1.77012,R,ugm-3,29.10848,R,ugm-3,31.82262,R,ugm-3
12-01-2020,22:00,0.66379,R,ugm-3,17.77134,R,ugm-3,18.78914,R,ugm-3
12-01-2020,23:00,0.22127,R,ugm-3,5.79693,R,ugm-3,6.13620,R,ugm-3
12-01-2020,24:00,0.18966,R,ugm-3,8.17620,R,ugm-3,8.46701,R,ugm-3
13-01-2020,01:00,0.12613,R,ugm-3,15.11008,R,ugm-3,15.30348,R,ugm-3
13-01-2020,02:00,0.29431,R,ugm-3,21.36567,R,ugm-3,21.81694,R,ugm-3
13-01-2020,03:00,0.22073,R,ugm-3,12.13515,R,ugm-3,12.47360,R,ugm-3
13-01-2020,04:00,0.22073,R,ugm-3,12.23001,R,ugm-3,12.56846,R,ugm-3
13-01-2020,05:00,0.28380,R,ugm-3,13.84072,R,ugm-3,14.27587,R,ugm-3
13-01-2020,06:00,0.37840,R,ugm-3,13.93281,R,ugm-3,14.51301,R,ugm-3
13-01-2020,07:00,0.50453,R,ugm-3,17.05938,R,ugm-3,17.83298,R,ugm-3
13-01-2020,08:00,1.10366,R,ugm-3,26.10063,R,ugm-3,27.79289,R,ugm-3
13-01-2020,09:00,2.30192,R,ugm-3,23.78904,R,ugm-3,27.31861,R,ugm-3
13-01-2020,10:00,4.25698,R,ugm-3,24.72786,R,ugm-3,31.25514,R,ugm-3
13-01-2020,11:00,4.63538,R,ugm-3,20.25855,R,ugm-3,27.36604,R,ugm-3
13-01-2020,12:00,4.35158,R,ugm-3,18.89144,R,ugm-3,25.56377,R,ugm-3
13-01-2020,13:00,3.62632,R,ugm-3,18.43836,R,ugm-3,23.99864,R,ugm-3
13-01-2020,14:00,2.93259,R,ugm-3,17.98437,R,ugm-3,22.48094,R,ugm-3
13-01-2020,15:00,1.63973,R,ugm-3,15.22391,R,ugm-3,17.73812,R,ugm-3
13-01-2020,16:00,1.86046,R,ugm-3,15.78660,R,ugm-3,18.63926,R,ugm-3
13-01-2020,17:00,1.41899,R,ugm-3,13.66524,R,ugm-3,15.84100,R,ugm-3
13-01-2020,18:00,1.22979,R,ugm-3,12.39021,R,ugm-3,14.27587,R,ugm-3
13-01-2020,19:00,0.63066,R,ugm-3,8.61348,R,ugm-3,9.58048,R,ugm-3
13-01-2020,20:00,0.40993,R,ugm-3,7.19709,R,ugm-3,7.82564,R,ugm-3
13-01-2020,21:00,0.37840,R,ugm-3,15.59279,R,ugm-3,16.17300,R,ugm-3
13-01-2020,22:00,0.40993,R,ugm-3,15.97130,R,ugm-3,16.59985,R,ugm-3
13-01-2020,23:00,0.18920,R,ugm-3,14.69719,R,ugm-3,14.98729,R,ugm-3
13-01-2020,24:00,0.25227,R,ugm-3,10.90110,R,ugm-3,11.28790,R,ugm-3
14-01-2020,01:00,0.25166,R,ugm-3,9.45021,R,ugm-3,9.83608,R,ugm-3
14-01-2020,02:00,0.18874,R,ugm-3,2.12233,R,ugm-3,2.41173,R,ugm-3
14-01-2020,03:00,0.28312,R,ugm-3,0.93727,R,ugm-3,1.37138,R,ugm-3
14-01-2020,04:00,0.22020,R,ugm-3,0.98645,R,ugm-3,1.32409,R,ugm-3
14-01-2020,05:00,0.15729,R,ugm-3,3.49465,R,ugm-3,3.73582,R,ugm-3
14-01-2020,06:00,0.34603,R,ugm-3,14.36541,R,ugm-3,14.89598,R,ugm-3
14-01-2020,07:00,0.56623,R,ugm-3,18.99310,R,ugm-3,19.86131,R,ugm-3
14-01-2020,08:00,0.97517,R,ugm-3,20.39949,R,ugm-3,21.89473,R,ugm-3
14-01-2020,09:00,2.07617,R,ugm-3,20.79202,R,ugm-3,23.97544,R,ugm-3
14-01-2020,10:00,2.89406,R,ugm-3,20.05812,R,ugm-3,24.49561,R,ugm-3
14-01-2020,11:00,2.61094,R,ugm-3,19.64102,R,ugm-3,23.64442,R,ugm-3
14-01-2020,12:00,2.61094,R,ugm-3,20.16120,R,ugm-3,24.16459,R,ugm-3
14-01-2020,13:00,1.98180,R,ugm-3,17.39006,R,ugm-3,20.42877,R,ugm-3
14-01-2020,14:00,3.42883,R,ugm-3,24.96010,R,ugm-3,30.21756,R,ugm-3
14-01-2020,15:00,3.42883,R,ugm-3,32.33715,R,ugm-3,37.59462,R,ugm-3
14-01-2020,16:00,1.85597,R,ugm-3,18.00859,R,ugm-3,20.85437,R,ugm-3
14-01-2020,17:00,3.33446,R,ugm-3,28.08399,R,ugm-3,33.19676,R,ugm-3
14-01-2020,18:00,1.85597,R,ugm-3,28.60129,R,ugm-3,31.44707,R,ugm-3
14-01-2020,19:00,1.13246,R,ugm-3,23.42125,R,ugm-3,25.15766,R,ugm-3
14-01-2020,20:00,0.81789,R,ugm-3,18.41808,R,ugm-3,19.67215,R,ugm-3
14-01-2020,21:00,0.53477,R,ugm-3,12.08988,R,ugm-3,12.90985,R,ugm-3
14-01-2020,22:00,0.34603,R,ugm-3,5.19138,R,ugm-3,5.72195,R,ugm-3
14-01-2020,23:00,0.15729,R,ugm-3,4.06212,R,ugm-3,4.30328,R,ugm-3
14-01-2020,24:00,0.15729,R,ugm-3,3.06905,R,ugm-3,3.31022,R,ugm-3
15-01-2020,01:00,0.20921,R,ugm-3,1.56520,R,ugm-3,1.88598,R,ugm-3
15-01-2020,02:00,0.15691,R,ugm-3,1.59825,R,ugm-3,1.83883,R,ugm-3
15-01-2020,03:00,0.12553,R,ugm-3,1.74066,R,ugm-3,1.93313,R,ugm-3
15-01-2020,04:00,0.21967,R,ugm-3,2.82220,R,ugm-3,3.15902,R,ugm-3
15-01-2020,05:00,0.21967,R,ugm-3,3.38799,R,ugm-3,3.72481,R,ugm-3
15-01-2020,06:00,0.21967,R,ugm-3,3.48229,R,ugm-3,3.81911,R,ugm-3
15-01-2020,07:00,0.53348,R,ugm-3,7.19743,R,ugm-3,8.01542,R,ugm-3
15-01-2020,08:00,1.25525,R,ugm-3,17.40662,R,ugm-3,19.33131,R,ugm-3
15-01-2020,09:00,1.41215,R,ugm-3,16.97744,R,ugm-3,19.14271,R,ugm-3
15-01-2020,10:00,2.38497,R,ugm-3,19.35207,R,ugm-3,23.00897,R,ugm-3
15-01-2020,11:00,2.66740,R,ugm-3,21.41794,R,ugm-3,25.50789,R,ugm-3
15-01-2020,12:00,2.57326,R,ugm-3,12.08524,R,ugm-3,16.03084,R,ugm-3
15-01-2020,13:00,2.03978,R,ugm-3,9.60276,R,ugm-3,12.73037,R,ugm-3
15-01-2020,14:00,1.50630,R,ugm-3,7.26173,R,ugm-3,9.57135,R,ugm-3
15-01-2020,15:00,1.19248,R,ugm-3,6.56417,R,ugm-3,8.39262,R,ugm-3
15-01-2020,16:00,0.87867,R,ugm-3,7.51683,R,ugm-3,8.86411,R,ugm-3
15-01-2020,17:00,0.72177,R,ugm-3,8.08747,R,ugm-3,9.19416,R,ugm-3
15-01-2020,18:00,0.65901,R,ugm-3,8.13655,R,ugm-3,9.14701,R,ugm-3
15-01-2020,19:00,0.47072,R,ugm-3,6.96362,R,ugm-3,7.68537,R,ugm-3
15-01-2020,20:00,0.37657,R,ugm-3,5.74063,R,ugm-3,6.31804,R,ugm-3
15-01-2020,21:00,0.47072,R,ugm-3,4.65329,R,ugm-3,5.37505,R,ugm-3
15-01-2020,22:00,0.40795,R,ugm-3,5.36247,R,ugm-3,5.98799,R,ugm-3
15-01-2020,23:00,0.25105,R,ugm-3,3.66992,R,ugm-3,4.05486,R,ugm-3